Flag for Germany Weather past 2 weeks in Rendsburg, Schleswig-Holstein, Germany

Now
64 °F

Scattered clouds.


Feels Like: 64 °F
Forecast: 48 / 67 °F
Wind: 13 mph from Northeast

Location: Hohn

Current Time: Sep 2, 2014 at 7:41:14 PM

Latest Report: Sep 2, 2014 at 6:20 PM


Visibility: N/A

Pressure: 30.24 "Hg

Humidity: 68%

Dew point: 54 °F

Location of RendsburgLocation

Historic Weather in Rendsburg — Graph

°F

Rendsburg temperature yesterday

Maximum temperature yesterday: 66 °F (at 3:20 PM)
Minimum temperature yesterday: 52 °F (at 4:20 AM)
Average temperature yesterday: 59 °F

Past Weeks' High & Low Weather Summary

 TemperatureHumidityPressure
High72 °F (Aug 28, 3:20 PM)100% (Aug 26, 5:20 AM)30.24 "Hg (Aug 26, 5:20 AM)
Low37 °F (Aug 26, 5:20 AM)41% (Aug 28, 4:20 PM)29.50 "Hg (Aug 18, 5:20 PM)
Average57 °F81%29.89 "Hg
* Reported Aug 18 5:20 PM — Sep 2 5:20 PM, Rendsburg, Weather by CustomWeather, © 2014

Note: Actual official high and low records may vary slightly from our data, if they occured in-between our weather recording intervals... More about our weather records

Advertising

Rendsburg weather history for previous 24 hours

 ConditionsComfort  
Time TempWeatherWind HumidityBarometerVisibility
5:20 PM
Sep 2
66 °FScattered clouds.13 mph60%30.24 "HgN/A
4:20 PM66 °FScattered clouds.14 mph64%30.24 "HgN/A
3:20 PM66 °FScattered clouds.13 mph64%30.24 "HgN/A
2:20 PM68 °FScattered clouds.13 mph60%30.24 "HgN/A
1:20 PM66 °FScattered clouds.12 mph60%30.24 "HgN/A
12:20 PM66 °FScattered clouds.12 mph60%30.21 "HgN/A
11:20 AM66 °FScattered clouds.10 mph64%30.24 "HgN/A
10:20 AM64 °FPassing clouds.10 mph68%30.21 "HgN/A
9:20 AM63 °FPassing clouds.10 mph77%30.21 "HgN/A
8:20 AM61 °FPassing clouds.10 mph83%30.18 "HgN/A
7:20 AM57 °FPassing clouds.8 mph94%30.18 "HgN/A
6:20 AM57 °FPartly cloudy.2 mph94%30.15 "HgN/A
5:45 AM59 °FPassing clouds.5 mph88%30.15 "HgN/A
5:20 AM59 °FPassing clouds.3 mph88%30.15 "HgN/A
4:20 AM59 °FPassing clouds.7 mph88%30.12 "HgN/A
3:20 AM59 °FPartly cloudy.8 mph88%30.12 "HgN/A
2:20 AM61 °FPassing clouds.9 mph83%30.12 "HgN/A
1:20 AM61 °FPassing clouds.7 mph83%30.12 "HgN/A
12:20 AM61 °FPassing clouds.9 mph83%30.12 "HgN/A
11:20 PM
Sep 1
61 °FPassing clouds.7 mph88%30.12 "HgN/A
10:20 PM61 °FPartly cloudy.9 mph88%30.09 "HgN/A
9:50 PM61 °FPartly cloudy.8 mph88%30.09 "HgN/A
9:20 PM61 °FPassing clouds.9 mph88%30.09 "HgN/A
8:20 PM61 °FPartly sunny.9 mph88%30.09 "HgN/A
7:45 PM63 °FLight rain. Broken clouds.9 mph83%30.07 "HgN/A
7:20 PM63 °FPartly sunny.9 mph83%30.07 "HgN/A
Weather by CustomWeather, © 2014

See weather overviewHow to use our weather pages